Weather in Martyush

Russia / Sverdlovsk Oblast     56°24′01″N   61°53′13″E
temp.,
°C
wind,
m/s
gust,
m/s
humid.,
%
clouds,
%
prec.,
mm/h
press.,
hPa
HPBL,
m
5 august, thu
thu523:00+19e388655 0.0 1012148
02:00+19s33826 0.0 101045
05:00+18wnw33836 0.0 101036
08:00+23wsw116687 0.0 1009158
11:00+29sse2248100 0.0 1008525
14:00+32sw2335100 0.0 10071679
17:00+34sw25315 0.0 10062790
20:00+24wnw46655 0.8 100681
6 august, fri
fri623:00+20sw71381100 1.3 1008307
02:00+18nw4109530 1.4 1007286
05:00+17wnw499739 1.6 1007331
08:00+16wnw5787100 0.0 1008609
11:00+19nw5769100 0.0 1009931
14:00+19nw6766100 0.0 10091154
17:00+20nw686796 0.0 1010964
20:00+17nnw51290100 0.6 1010562
7 august, sat
sat723:00+16nw5119096 0.8 1010399
02:00+16nw51286100 0.1 1011428
05:00+15nw5118398 0.1 1011364
08:00+17nw696924 0.0 1012453
11:00+21nw67410 0.0 10111218
14:00+23nw78330 0.0 10111845
17:00+23nnw68360 0.0 10112102
20:00+19nw8125695 0.0 1012675
8 august, sun
sun823:00+16nw510740 0.2 1013536
02:00+12nw4118644 0.0 1013307
05:00+11nw511870 0.0 1014351
08:00+14nw61073100 0.0 1014477
11:00+17nnw796099 0.0 1014861
14:00+17nnw61064100 0.0 1015810
17:00+21n795691 0.0 10151295
20:00+17n4116912 0.0 1016450
9 august, mon
mon923:00+15nnw38820 0.0 1017140
02:00+14nw411866 0.0 1017224
05:00+13nnw48935 0.0 1018175
08:00+17nnw45755 0.0 1018336
11:00+22nw4459100 0.0 10181002
14:00+24nw334864 0.0 10171508
17:00+25nnw444297 0.0 10171755
20:00+20n3554100 0.0 101787